Reflectivity
-20 -20 -20 -20 -20 -20 -16 -16 6 19 -4 1 -20 -20 -20 -20 -20 -20 -20 -20 -20 -20 -20 -12 14 -14 14 1 18 7 -10 -5 15 -2 -19 -20 10 -3 -3 -11 -20 -20 -20
-20 -20 -20 -20 -20 -20 -1 -18 -20 -8 13 11 15 -20 -20 -20 -20 -20 -20 -20 -20 -20 -20 -14 7 2 14 -1 16 17 -9 -2 18 2 -20 -20 -20 3 -20 -20 -20 -20 -20
-20 -20 -20 -20 -20 -20 -20 -20 -20 -20 24 21 30 26 -20 -20 -20 -20 -20 -20 -20 -20 -20 3 14 18 19 6 -5 15 15 14 12 -1 -20 -20 -20 -20 -20 -20 -20 -20 -20
-17 1 -16 -20 -20 -20 -17 -20 -20 -20 -20 23 29 28 12 -20 -20 -20 -20 -20 -20 -20 -20 -20 6 7 14 -14 17 17 13 9 -20 -13 -4 -20 -20 -20 -20 -20 -20 -20 -20
-20 -20 -20 -20 -20 -20 -20 -9 -20 -20 -13 30 25 26 17 -20 -20 -20 -20 -20 -20 -20 -20 -20 -20 -20 5 12 8 18 9 1 -7 -20 -20 -20 -20 -20 -20 -20 -20 -20 -20
7 -20 -20 -3 -20 23 18 -13 -20 -20 14 34 28 23 12 -14 -20 -20 -20 -20 -20 -20 -20 -20 -10 1 1 -20 -13 6 -20 -1 -6 -20 -20 -20 -20 -20 -20 -20 -20 -20 -20
10 13 12 20 -20 -17 18 -20 -20 14 26 35 36 26 15 -6 -20 -20 -20 -20 -20 -20 -20 -20 -20 -20 -20 -20 -20 -20 -20 -20 -20 -20 -20 -20 -20 -20 -20 -20 -20 -20 -2
0 10 15 20 20 -20 -20 6 -3 17 35 25 24 10 12 -18 -20 -20 -20 -20 -20 -20 -20 -20 -20 -20 -20 -20 -20 -20 -20 -2 -15 -20 -20 -20 -20 -20 -20 -20 -20 -20 -20
-15 -2 -15 2 19 -20 -7 -17 -4 9 34 26 27 -4 20 -18 -20 -20 -20 -20 -20 -20 -20 -20 -20 -20 -20 -20 -20 -20 -20 -20 -10 -20 -20 -20 -20 -20 -20 -20 -20 -16 -1
7 -20 -20 -16 -18 -20 -12 8 1 13 20 30 16 21 27 9 -20 -15 -20 -20 -20 -20 -20 -20 -20 -20 -20 -20 -20 -20 -20 -20 -20 -20 -20 -20 -20 -20 -3 5 -8 -18 -18
8 -20 -20 -1 -11 4 -20 -12 31 34 21 28 27 9 14 16 13 -1 -20 -20 -20 -20 -20 -20 -20 -20 -20 -20 -20 -20 -20 -20 -20 -20 -20 -20 -20 -20 -20 -20 -20 -20 -20
13 9 8 -11 -17 -2 -20 11 19 22 28 25 31 27 23 6 16 10 2 -20 -20 -20 -20 -20 -20 -20 -20 -6 -11 -17 -20 -20 -20 -20 -20 -20 -20 -20 -20 -20 -20 -20 -20
2 3 -13 -20 -20 2 -3 19 23 32 29 27 26 28 21 10 16 3 -20 -19 -19 -20 -20 -20 -20 -20 -20 -20 -20 -20 -20 -20 -20 -20 -20 -20 -20 -20 -20 -20 -17 1 1
-20 -20 -20 -20 -20 -8 30 29 27 27 27 25 24 23 23 17 -20 -20 -20 -20 -18 -20 -20 -20 -8 -20 -10 -13 -20 -20 -20 -20 -20 -20 -20 -20 -20 -20 -20 -20 -20 -0 2
-20 -20 -10 -7 -20 26 26 30 22 18 23 27 26 25 23 26 15 -18 9 4 4 -20 -13 -10 1 6 16 14 -17 -20 -18 -20 -20 -20 -20 -20 -20 -9 -6 -8 -18 -6 -20
-20 -20 -20 -20 -20 20 23 27 21 22 25 25 26 24 18 26 23 16 -4 -20 -20 -20 -20 -8 12 2 -14 11 30 20 23 24 6 -17 10 -1 1 12 4 14 -12 -2 -17
-20 -20 -20 -20 -20 13 24 25 29 26 26 27 26 26 28 23 16 5 -15 -18 -20 -13 -17 20 25 26 26 12 -11 2 3 -0 -10 -18 -15 12 -9 -11 11 15 18 -10 -20
2 -20 -20 -10 -20 -5 25 27 29 30 26 27 27 26 26 17 2 6 13 7 6 16 11 13 14 23 13 -10 -20 -12 3 8 -15 15 3 -12 8 17 13 6 -10 -16 -20
10 3 -20 2 -1 -20 10 28 29 28 22 25 27 28 26 28 21 17 22 23 20 22 20 0 -9 -15 -19 -8 -8 -10 -20 -20 -19 -2 11 15 -14 -19 3 -17 -20 -17 -17
-13 -20 -14 -12 12 -16 3 24 16 28 26 28 11 26 28 31 25 17 14 10 11 5 1 -19 -18 -18 -17 -20 -20 -20 -20 -6 27 5 16 17 14 3 -8 -10 -6 7 11
-3 -20 -17 13 20 -19 5 7 19 18 25 28 32 24 12 16 11 20 2 -17 -18 -13 -19 -20 -20 -20 -20 -15 11 8 -2 2 13 25 21 19 21 28 21 18 11 26 8
11 12 10 -1 15 12 15 14 14 13 17 -7 19 2 10 16 12 10 13 16 21 25 1 -4 -2 -3 2 8 20 10 16 -20 1 -20 -20 -6 -20 -13 5 -12 14 19 6
-4 13 12 -0 11 1 15 12 17 15 -5 6 -8 21 1 2 26 5 -13 10 12 12 13 -9 -2 5 20 15 16 17 18 25 23 12 12 11 9 -5 9 1 15 -4 -3
7 18 12 13 7 14 19 20 17 -9 6 8 21 4 8 23 15 12 -17 7 0 -0 18 31 21 27 14 8 3 0 -12 -13 -20 -20 -20 -20 -20 -20 -20 -20 -3 -4 -10
-17 -19 -20 -20 -18 -5 12 19 20 16 16 7 -1 -11 -4 -20 -7 -14 -18 -0 16 13 20 1 -8 3 -15 -17 -20 -20 -20 -20 -20 -20 -20 -20 -20 -20 -20 -20 -20 -20 -20
21 21 26 23 22 14 28 26 24 10 4 -6 -3 1 16 11 14 1 -17 -20 -20 -20 -20 -20 -20 -19 -20 -20 -20 -20 -20 -20 -20 -20 -20 -20 -20 -20 -20 -20 -20 -20 -20
Wind_Speed
7 6 5 4 5 6 8 8 8 6 6 7 8 6 8 9 10 7 6 13 14 17 18 17 16 16 16 15 14 15 15 16 15 15 14 13 13 13 12 12 11 11 10
7 7 7 6 5 7 7 7 7 6 6 4 5 7 10 10 11 10 6 8 12 14 16 16 16 17 17 18 16 15 14 14 14 14 13 12 10 12 12 11 10 10 9
9 8 7 7 6 7 8 6 4 3 4 2 2 3 11 12 10 11 8 6 7 11 11 14 16 17 17 17 16 15 14 13 13 14 13 12 12 13 12 10 10 9 8
10 9 7 7 7 6 8 7 6 4 5 5 2 2 8 11 12 11 9 7 5 5 9 13 15 14 15 17 15 15 15 15 13 14 14 13 12 12 11 11 10 10 10
7 7 6 6 8 7 7 7 4 7 7 7 5 4 6 10 11 9 11 9 7 5 4 12 14 14 15 16 15 16 16 16 16 15 15 15 14 13 13 12 12 11 11
8 6 5 6 7 7 6 6 8 5 5 7 8 5 5 7 9 9 9 8 8 9 7 5 6 7 13 15 16 17 17 17 17 16 16 16 15 14 14 13 13 13 13
7 7 6 8 7 7 9 9 6 8 5 11 5 4 4 5 7 8 8 8 8 9 8 7 5 4 6 13 18 18 18 18 18 18 17 16 15 15 15 14 14 14 14
6 8 10 10 9 7 8 8 8 5 4 7 6 9 4 3 3 5 8 9 10 8 8 9 9 8 7 6 7 17 17 18 19 18 17 16 15 15 15 15 16 15 15
7 8 10 9 9 8 8 9 10 9 7 7 6 5 7 5 4 2 5 4 9 7 8 10 10 9 8 7 8 12 13 13 15 18 17 16 16 17 17 18 18 18 18
7 8 10 10 11 8 9 10 9 8 6 12 3 5 3 6 8 2 2 3 5 6 9 9 10 10 10 8 11 12 14 15 15 14 17 20 20 20 20 20 20 19 19
8 8 9 10 10 8 10 12 12 12 8 8 7 4 3 3 3 4 3 3 0 4 5 8 9 9 11 11 8 10 16 17 16 17 16 16 18 20 20 21 21 21 21
4 7 8 9 10 10 11 11 15 15 9 8 6 5 4 4 4 4 3 3 8 3 3 4 5 5 5 8 10 14 16 17 17 17 19 19 19 18 19 21 22 22 22
3 4 6 7 7 9 11 12 12 13 11 10 9 5 2 3 4 3 4 3 4 3 3 3 5 5 4 5 6 13 17 19 18 20 20 19 20 20 20 20 20 21 23
6 7 6 7 8 11 9 12 8 10 11 8 7 4 3 2 2 4 4 4 2 3 2 4 4 6 6 7 7 9 6 15 16 16 17 19 19 20 20 21 22 22 23
6 6 6 6 8 7 8 11 8 11 11 8 5 4 3 3 3 3 4 4 5 4 3 2 2 5 4 2 4 6 6 10 15 17 17 18 20 21 20 21 21 22 24
8 8 6 5 6 6 9 11 10 8 12 8 4 5 3 3 5 5 4 4 4 3 3 3 1 1 4 4 8 10 11 14 16 17 18 18 18 20 20 20 21 22 24
9 9 8 6 6 6 5 9 10 13 11 9 6 6 6 5 4 4 4 3 3 3 2 3 1 1 4 6 4 5 6 6 7 13 16 18 18 18 20 21 22 21 21
8 8 8 7 6 6 6 6 8 11 11 10 8 7 6 3 4 4 3 1 0 3 3 10 9 6 6 5 4 5 5 6 6 11 16 16 16 11 6 4 1 4 8
6 5 7 7 7 6 6 6 6 7 8 9 9 8 6 6 5 4 4 5 5 3 6 8 10 5 5 3 5 4 8 10 8 11 12 16 15 15 16 12 11 11 10
11 10 10 10 10 9 7 3 6 7 7 6 7 7 7 7 6 5 7 9 8 8 7 6 7 8 5 5 5 8 8 3 3 8 18 14 13 17 15 15 15 13 13
11 11 11 11 9 8 6 4 6 4 7 5 8 12 13 13 15 9 1 0 3 7 7 7 7 7 8 4 2 3 2 3 4 6 3 5 6 5 7 12 13 15 16
11 12 12 10 9 6 6 6 8 11 12 11 11 10 11 11 14 19 21 21 14 3 1 1 2 3 3 4 4 3 3 2 2 7 4 4 4 6 6 7 14 14 13
12 12 11 11 12 11 16 19 19 12 12 12 10 8 9 6 6 11 17 18 19 20 16 4 5 5 3 5 5 3 2 2 3 6 4 3 4 6 4 5 11 11 13
12 12 11 12 13 11 17 18 21 15 14 13 11 10 9 6 4 12 12 13 13 14 11 9 10 7 5 5 3 2 2 1 4 5 6 2 3 2 1 2 9 10 10
11 12 11 12 14 13 16 14 14 13 14 15 14 13 11 11 14 16 12 13 11 9 14 18 17 15 16 17 14 2 5 2 3 3 7 2 2 1 1 2 3 8 6
11 9 11 11 18 15 17 17 13 9 13 10 11 13 22 17 21 18 11 10 12 6 5 7 7 9 10 11 16 7 2 5 2 3 4 2 4 1 1 2 1 2 3
Wind_Direction
153 150 157 159 161 159 168 171 173 180 181 180 169 175 129 131 133 135 149 149 150 153 155 157 157 161 156 158 165 161 148 146 149 144 142 139 146 142 141 138 138 136 140
153 163 167 172 171 165 169 177 177 173 187 172 197 171 139 138 138 137 145 153 153 153 155 158 163 159 162 157 156 163 161 157 160 148 146 142 146 143 141 144 147 148 156
161 158 166 169 175 162 160 168 155 124 132 146 239 153 143 139 138 147 149 146 158 150 152 160 159 168 166 163 163 166 166 165 169 160 158 157 150 146 154 161 162 163 168
163 159 162 162 164 158 170 164 168 139 143 164 165 285 147 147 144 153 145 150 150 151 156 164 157 166 169 173 173 173 175 176 177 170 170 169 169 169 171 175 179 181 185
158 155 165 157 159 172 166 157 157 168 167 172 180 223 169 139 149 144 157 157 150 152 156 168 168 174 176 172 176 184 184 185 186 184 182 181 183 183 186 189 193 196 200
163 155 152 151 160 159 148 145 161 173 171 180 173 185 159 129 139 155 163 155 165 165 158 163 172 181 180 168 177 193 191 194 197 196 191 192 195 196 197 201 204 207 210
156 149 152 159 162 169 170 168 158 172 185 154 144 107 50 125 137 157 163 165 172 172 162 168 181 184 189 182 179 196 202 204 204 206 204 203 204 205 206 211 216 217 222
156 154 162 172 169 165 167 168 155 159 144 147 148 146 140 59 63 144 166 178 175 174 170 181 184 188 183 184 192 197 207 212 210 213 213 211 209 210 215 219 223 225 226
167 165 168 170 168 169 175 173 166 165 158 171 225 152 133 177 132 142 158 171 182 181 184 185 191 190 188 187 194 202 203 220 223 214 215 213 214 214 217 223 226 229 229
181 167 172 171 176 179 178 182 171 161 155 169 212 183 114 138 161 150 327 200 162 180 181 186 191 194 194 196 198 199 202 211 220 231 222 213 214 217 219 222 226 228 229
178 177 176 177 180 186 183 180 173 168 171 166 175 174 110 114 117 126 179 239 279 210 190 182 192 201 194 195 196 204 203 209 217 224 232 238 228 225 225 227 228 230 233
132 168 174 182 191 190 185 183 185 172 162 174 176 172 163 148 174 149 135 183 210 252 208 194 185 191 193 184 195 195 200 208 213 220 225 231 236 238 235 235 237 238 237
133 184 172 182 190 197 193 177 175 173 164 172 182 184 182 137 149 153 132 157 185 220 201 225 209 193 205 211 205 185 200 206 209 216 224 228 232 236 238 241 245 246 244
173 181 188 199 202 212 190 164 171 168 170 162 171 171 169 183 159 148 139 139 109 176 213 209 210 218 210 205 215 214 212 202 211 217 223 225 229 231 232 234 238 243 246
159 164 172 168 170 160 160 165 168 171 169 173 172 175 181 173 139 126 113 129 142 152 172 213 184 216 204 213 209 213 215 216 213 217 222 226 230 232 233 235 235 238 243
161 160 169 159 143 157 177 174 179 163 172 174 173 162 179 177 137 112 121 113 94 115 185 181 204 27 201 195 225 225 230 225 221 221 225 227 232 234 233 233 237 237 240
159 163 168 165 163 152 144 176 166 172 169 155 147 171 176 169 130 134 124 129 134 130 207 296 176 194 240 227 241 209 234 230 238 231 234 235 234 234 238 234 233 240 247
159 162 164 163 163 162 148 140 152 155 158 163 162 162 173 160 147 136 99 10 230 158 180 262 272 263 241 212 212 232 249 242 235 234 237 243 250 282 9 57 48 307 276
125 125 150 159 165 163 159 150 149 154 163 171 174 177 174 172 195 187 191 226 237 199 213 232 258 237 242 226 263 270 272 268 264 269 268 65 61 69 77 64 52 42 34
85 83 75 76 74 68 62 105 156 159 162 168 174 183 174 196 225 205 215 223 229 234 218 224 245 260 251 255 241 265 273 229 299 76 76 86 73 70 69 59 51 50 49
75 82 85 75 68 67 44 30 70 123 178 103 71 80 67 65 71 61 239 244 263 232 227 235 241 247 255 260 2 12 348 337 74 27 58 60 75 60 43 51 65 52 58
73 75 66 67 60 51 34 78 78 76 75 82 84 89 78 64 69 77 74 64 56 27 8 355 13 25 50 21 344 336 301 337 234 42 344 103 61 65 55 55 59 61 57
74 64 68 63 60 59 62 77 82 78 75 68 71 72 77 58 94 97 76 67 57 55 47 10 74 34 33 358 317 319 358 347 24 5 339 74 43 68 47 62 64 53 58
70 73 58 59 71 65 62 76 86 85 80 71 64 64 74 63 104 109 97 81 66 57 50 62 74 68 49 5 326 288 314 330 103 44 5 64 359 56 38 9 46 40 38
68 66 66 63 67 64 68 69 80 83 81 74 68 62 58 56 81 102 96 92 79 68 71 78 77 68 54 44 39 32 21 35 90 42 16 0 334 25 354 346 349 15 12
68 67 65 61 74 72 69 78 80 85 86 80 68 64 64 72 73 77 85 97 98 92 83 72 53 44 43 43 45 43 4 60 52 44 318 24 346 5 311 269 259 242 318